This is the latest recevied weather packets stored in our database for station/object PA1CD-13. If no packets are shown the sender has not sent any weather packets the latest 1 day(s).
| Time | Temp. | Humidity | Pressure | Rain* | Wind** | Luminosity | Snow |
|---|---|---|---|---|---|---|---|
| 1778093763 | 10.56° C | 38% | 1010.8 hPa | 0 mm | - | 12 W/m² | - |
| 1778093522 | 10.56° C | 38% | 1010.8 hPa | 0 mm | - | 12 W/m² | - |
| 1778092083 | 11.11° C | 51% | 1010.6 hPa | 0 mm | - | 46 W/m² | - |
| 1778091606 | 11.11° C | 55% | 1010.6 hPa | 0 mm | - | 33 W/m² | - |
| 1778091126 | 11.67° C | 59% | 1010.5 hPa | 0 mm | - | 74 W/m² | - |
| 1778090886 | 11.67° C | 61% | 1010.4 hPa | 0 mm | - | 74 W/m² | - |
| 1778090166 | 11.67° C | 62% | 1010.3 hPa | 0 mm | - | 125 W/m² | - |
| 1778089806 | 12.22° C | 63% | 1010.2 hPa | 0 mm | - | 139 W/m² | - |
| 1778089206 | 12.22° C | 63% | 1010 hPa | 0 mm | - | 171 W/m² | - |
| 1778089090 | 12.22° C | 63% | 1010 hPa | 0 mm | - | 179 W/m² | - |
| 1778088966 | 12.22° C | 63% | 1010 hPa | 0 mm | - | 185 W/m² | - |
| 1778088845 | 12.22° C | 63% | 1010 hPa | 0 mm | - | 188 W/m² | - |
| 1778088365 | 12.78° C | 63% | 1009.9 hPa | 0 mm | - | 193 W/m² | - |
| 1778088127 | 12.78° C | 63% | 1009.9 hPa | 0 mm | - | 218 W/m² | - |
| 1778087885 | 12.78° C | 63% | 1009.8 hPa | 0 mm | - | 243 W/m² | - |
| 1778086807 | 12.78° C | 63% | 1009.7 hPa | 0 mm | - | 303 W/m² | - |
| 1778086685 | 12.78° C | 63% | 1009.7 hPa | 0 mm | - | 311 W/m² | - |
| 1778085965 | 12.78° C | 62% | 1009.7 hPa | 0 mm | - | 318 W/m² | - |
| 1778085726 | 13.33° C | 62% | 1009.8 hPa | 0 mm | - | 338 W/m² | - |
| 1778085606 | 13.33° C | 62% | 1009.7 hPa | 0 mm | - | 315 W/m² | - |
| 1778085245 | 13.33° C | 62% | 1009.7 hPa | 0 mm | - | 348 W/m² | - |
| 1778084765 | 13.33° C | 62% | 1009.6 hPa | 0 mm | - | 394 W/m² | - |
| 1778084047 | 13.33° C | 62% | 1009.7 hPa | 0 mm | - | 450 W/m² | - |
| 1778083686 | 13.33° C | 62% | 1009.6 hPa | 0 mm | - | 443 W/m² | - |
| 1778083565 | 13.33° C | 62% | 1009.6 hPa | 0 mm | - | 464 W/m² | - |
* Rain latest hour (hover to see other rain measurements)
** Current wind speed in m/s (hover to see current wind gust speed)